| time (UTC) | temp F | wind direction | speed MPH | gust MPH | rain 1hr in | rain 24hr in | rain mn in | humidity % | barometer mb |
| 20260507060717 | 27 | 180 | 0.0 | 1.0 | 0.00 | 0.00 | 0.00 | 6550.2 | |
| 20260507060513 | 27 | 135 | 0.0 | 2.0 | 0.00 | 0.00 | 0.00 | 6550.2 | |
| 20260507060309 | 27 | 45 | 0.0 | 2.0 | 0.00 | 0.00 | 0.00 | 6550.2 | |
| 20260507060200 | 27 | 270 | 1.0 | 2.0 | 0.00 | 0.00 | 0.00 | 6550.2 | |
| 20260507060105 | 27 | 270 | 1.0 | 2.0 | 0.00 | 0.00 | 0.00 | 6550.2 | |
| 20260507055901 | 27 | 240 | 0.0 | 1.0 | 0.00 | 0.00 | 0.00 | 6550.2 | |
| 20260507055657 | 27 | 225 | 0.0 | 1.0 | 0.00 | 0.00 | 0.00 | 6550.2 | |
| 20260507055453 | 27 | 133 | 1.0 | 1.0 | 0.00 | 0.00 | 0.00 | 6550.2 | |
| 20260507055329 | 27 | 112 | 0.0 | 0.0 | 0.00 | 0.00 | 0.00 | 6550.2 | |
| 20260507055320 | 27 | 243 | 2.0 | 4.0 | 0.00 | 0.00 | 0.00 | 6550.2 | |
| 20260507055249 | 27 | 112 | 0.0 | 0.0 | 0.00 | 0.00 | 0.00 | 6550.2 | |
| 20260507055244 | 27 | 243 | 2.0 | 4.0 | 0.00 | 0.00 | 0.00 | 6550.2 | |
| 20260507055040 | 27 | 50 | 2.0 | 2.0 | 0.00 | 0.00 | 0.00 | 6550.2 | |
| 20260507054907 | 27 | 135 | 0.0 | 1.0 | 0.00 | 0.00 | 0.00 | 6550.2 | |
| 20260507054836 | 27 | 135 | 0.0 | 1.0 | 0.00 | 0.00 | 0.00 | 6550.2 | |
| 20260507054632 | 27 | 135 | 0.0 | 0.0 | 0.00 | 0.00 | 0.00 | 6550.2 | |
| 20260507054501 | 27 | 0 | 0.0 | 0.0 | 0.00 | 0.00 | 0.00 | 6550.2 | |
| 20260507054428 | 27 | 0 | 0.0 | 0.0 | 0.00 | 0.00 | 0.00 | 6550.2 | |
| 20260507054224 | 27 | 0 | 0.0 | 1.0 | 0.00 | 0.00 | 0.00 | 6550.2 | |
| 20260507054020 | 27 | 0 | 0.0 | 1.0 | 0.00 | 0.00 | 0.00 | 6550.2 | |
| 20260507053816 | 27 | 53 | 1.0 | 2.0 | 0.00 | 0.00 | 0.00 | 6550.2 | |
| 20260507053408 | 27 | 45 | 0.0 | 2.0 | 0.00 | 0.00 | 0.00 | 6550.2 | |
| 20260507053204 | 27 | 7 | 1.0 | 1.0 | 0.00 | 0.00 | 0.00 | 6550.2 | |
| 20260507053000 | 27 | 90 | 0.0 | 1.0 | 0.00 | 0.00 | 0.00 | 6550.2 | |
| 20260507052835 | 27 | 59 | 0.0 | 1.0 | 0.00 | 0.00 | 0.00 | 6550.2 | |
| 20260507052756 | 27 | 59 | 0.0 | 1.0 | 0.00 | 0.00 | 0.00 | 6550.2 | |
| 20260507052552 | 27 | 25 | 1.0 | 2.0 | 0.00 | 0.00 | 0.00 | 6550.2 | |
| 20260507052348 | 27 | 135 | 0.0 | 2.0 | 0.00 | 0.00 | 0.00 | 6550.2 | |
| 20260507052144 | 27 | 45 | 1.0 | 4.0 | 0.00 | 0.00 | 0.00 | 6550.2 | |
| 20260507051940 | 27 | 45 | 1.0 | 4.0 | 0.00 | 0.00 | 0.00 | 6550.2 | |
| 20260507051736 | 27 | 315 | 1.0 | 4.0 | 0.00 | 0.00 | 0.00 | 6550.2 | |
| 20260507051532 | 27 | 35 | 2.0 | 2.0 | 0.00 | 0.00 | 0.00 | 6550.2 | |
| 20260507051422 | 27 | 336 | 1.0 | 2.0 | 0.00 | 0.00 | 0.00 | 6550.2 | |
| 20260507051328 | 27 | 336 | 1.0 | 2.0 | 0.00 | 0.00 | 0.00 | 6550.2 | |
| 20260507051124 | 27 | 43 | 2.0 | 4.0 | 0.00 | 0.00 | 0.00 | 6550.2 | |
| 20260507051001 | 27 | 259 | 0.0 | 4.0 | 0.00 | 0.00 | 0.00 | 6550.2 | |
| 20260507050920 | 27 | 259 | 0.0 | 4.0 | 0.00 | 0.00 | 0.00 | 6550.2 | |
| 20260507050716 | 27 | 314 | 4.0 | 4.0 | 0.00 | 0.00 | 0.00 | 6550.2 | |
| 20260507050545 | 27 | 28 | 1.0 | 3.0 | 0.00 | 0.00 | 0.00 | 6550.2 | |
| 20260507050512 | 27 | 28 | 1.0 | 3.0 | 0.00 | 0.00 | 0.00 | 6550.2 | |
| 20260507050308 | 27 | 112 | 0.0 | 0.0 | 0.00 | 0.00 | 0.00 | 6550.2 | |
| 20260507050236 | 27 | 334 | 2.0 | 3.0 | 0.00 | 0.00 | 0.01 | 6550.2 | |
| 20260507050125 | 27 | 2 | 2.0 | 3.0 | 0.00 | 0.00 | 0.01 | 6550.2 | |
| 20260507050032 | 27 | 2 | 2.0 | 3.0 | 0.00 | 0.00 | 0.01 | 6550.2 | |
| 20260507045828 | 27 | 336 | 1.0 | 3.0 | 0.00 | 0.00 | 0.01 | 6550.2 | |
| 20260507045624 | 27 | 34 | 1.0 | 2.0 | 0.00 | 0.00 | 0.01 | 6550.2 | |
| 20260507045420 | 27 | 13 | 0.0 | 2.0 | 0.00 | 0.00 | 0.01 | 6550.2 | |
| 20260507045216 | 27 | 29 | 1.0 | 1.0 | 0.00 | 0.00 | 0.01 | 6550.2 | |
| 20260507045043 | 27 | 0 | 1.0 | 2.0 | 0.00 | 0.00 | 0.01 | 6550.2 | |
| 20260507045012 | 27 | 0 | 1.0 | 2.0 | 0.00 | 0.00 | 0.01 | 6550.2 | |
| 20260507044636 | 27 | 0 | 2.0 | 4.0 | 0.00 | 0.00 | 0.01 | 6550.2 | |
| 20260507044604 | 27 | 0 | 2.0 | 4.0 | 0.00 | 0.00 | 0.01 | 6550.2 | |
| 20260507044400 | 27 | 344 | 1.0 | 4.0 | 0.00 | 0.00 | 0.01 | 6550.2 | |
| 20260507044156 | 27 | 324 | 2.0 | 4.0 | 0.00 | 0.00 | 0.01 | 6550.2 | |
| 20260507044025 | 27 | 338 | 1.0 | 4.0 | 0.00 | 0.00 | 0.01 | 6550.2 | |
| 20260507043952 | 27 | 338 | 1.0 | 4.0 | 0.00 | 0.00 | 0.01 | 6550.2 | |
| 20260507043822 | 27 | 301 | 0.0 | 4.0 | 0.00 | 0.00 | 0.01 | 6550.2 | |
| 20260507043748 | 27 | 301 | 0.0 | 4.0 | 0.00 | 0.00 | 0.01 | 6550.2 | |
| 20260507043544 | 27 | 333 | 3.0 | 4.0 | 0.00 | 0.00 | 0.01 | 6550.2 | |
| 20260507043421 | 27 | 358 | 1.0 | 3.0 | 0.00 | 0.00 | 0.01 | 6550.2 | |
| 20260507043340 | 27 | 358 | 1.0 | 3.0 | 0.00 | 0.00 | 0.01 | 6550.2 | |
| 20260507043136 | 27 | 317 | 3.0 | 4.0 | 0.00 | 0.00 | 0.01 | 6550.2 | |
| 20260507042932 | 27 | 300 | 2.0 | 5.0 | 0.00 | 0.00 | 0.01 | 6550.2 | |
| 20260507042818 | 27 | 317 | 2.0 | 5.0 | 0.00 | 0.00 | 0.01 | 6550.2 | |
| 20260507042728 | 27 | 317 | 2.0 | 5.0 | 0.00 | 0.00 | 0.01 | 6550.2 | |
| 20260507042615 | 27 | 37 | 1.0 | 5.0 | 0.00 | 0.00 | 0.01 | 6550.2 | |
| 20260507042524 | 27 | 37 | 1.0 | 5.0 | 0.00 | 0.00 | 0.01 | 6550.2 | |
| 20260507042403 | 27 | 45 | 0.0 | 3.0 | 0.00 | 0.00 | 0.01 | 6550.2 | |
| 20260507042320 | 27 | 45 | 0.0 | 3.0 | 0.00 | 0.00 | 0.01 | 6550.2 | |
| 20260507042116 | 27 | 350 | 2.0 | 3.0 | 0.00 | 0.00 | 0.01 | 6550.2 | |
| 20260507041912 | 27 | 270 | 0.0 | 2.0 | 0.00 | 0.00 | 0.01 | 6550.2 | |
| 20260507041708 | 27 | 315 | 1.0 | 1.0 | 0.00 | 0.00 | 0.01 | 6550.2 | |
| 20260507041504 | 27 | 45 | 0.0 | 2.0 | 0.00 | 0.00 | 0.01 | 6550.2 | |
| 20260507041300 | 27 | 289 | 1.0 | 2.0 | 0.00 | 0.00 | 0.01 | 6550.2 | |
| 20260507041056 | 27 | 51 | 1.0 | 3.0 | 0.00 | 0.00 | 0.01 | 6550.2 | |
| 20260507040852 | 27 | 328 | 1.0 | 3.0 | 0.00 | 0.00 | 0.01 | 6550.2 | |
| 20260507040648 | 27 | 9 | 1.0 | 2.0 | 0.00 | 0.00 | 0.01 | 6550.2 | |
| 20260507040444 | 27 | 330 | 2.0 | 4.0 | 0.00 | 0.00 | 0.01 | 6550.2 | |
| 20260507040325 | 27 | 315 | 1.0 | 4.0 | 0.00 | 0.00 | 0.01 | 6550.2 | |
| 20260507040240 | 27 | 315 | 1.0 | 4.0 | 0.00 | 0.00 | 0.01 | 6550.2 | |
| 20260507040036 | 27 | 323 | 3.0 | 4.0 | 0.00 | 0.00 | 0.01 | 6550.2 | |
| 20260507035832 | 27 | 315 | 0.0 | 4.0 | 0.00 | 0.00 | 0.01 | 6550.2 | |
| 20260507035628 | 27 | 326 | 1.0 | 4.0 | 0.00 | 0.00 | 0.01 | 6550.2 | |
| 20260507035501 | 27 | 318 | 3.0 | 4.0 | 0.00 | 0.00 | 0.01 | 6550.2 | |
| 20260507035424 | 27 | 318 | 3.0 | 4.0 | 0.00 | 0.00 | 0.01 | 6550.2 | |
| 20260507035220 | 27 | 279 | 1.0 | 3.0 | 0.00 | 0.00 | 0.01 | 6550.2 | |
| 20260507035016 | 27 | 339 | 3.0 | 3.0 | 0.00 | 0.00 | 0.01 | 6550.2 | |
| 20260507034812 | 27 | 292 | 1.0 | 5.0 | 0.00 | 0.00 | 0.01 | 6550.2 | |
| 20260507034404 | 27 | 308 | 1.0 | 3.0 | 0.00 | 0.00 | 0.01 | 6550.2 | |
| 20260507034200 | 27 | 323 | 1.0 | 4.0 | 0.00 | 0.00 | 0.01 | 6550.2 | |
| 20260507033956 | 27 | 329 | 3.0 | 4.0 | 0.00 | 0.00 | 0.01 | 6550.2 | |
| 20260507033837 | 27 | 348 | 1.0 | 4.0 | 0.00 | 0.00 | 0.01 | 6550.2 | |
| 20260507033752 | 27 | 348 | 1.0 | 4.0 | 0.00 | 0.00 | 0.01 | 6550.2 | |
| 20260507033344 | 27 | 334 | 1.0 | 2.0 | 0.00 | 0.00 | 0.01 | 6550.2 | |
| 20260507033140 | 27 | 269 | 0.0 | 2.0 | 0.00 | 0.00 | 0.01 | 6550.2 | |
| 20260507032936 | 27 | 348 | 0.0 | 3.0 | 0.00 | 0.00 | 0.01 | 6550.2 | |
| 20260507032823 | 27 | 315 | 0.0 | 3.0 | 0.00 | 0.00 | 0.01 | 6550.2 | |
| 20260507032732 | 27 | 315 | 0.0 | 3.0 | 0.00 | 0.00 | 0.01 | 6550.2 | |
| 20260507032528 | 27 | 5 | 1.0 | 3.0 | 0.00 | 0.00 | 0.01 | 6550.2 | |
| 20260507032324 | 27 | 314 | 1.0 | 3.0 | 0.00 | 0.00 | 0.01 | 6550.2 | |
| 20260507032120 | 27 | 312 | 0.0 | 3.0 | 0.00 | 0.00 | 0.01 | 6550.2 | |
| 20260507031917 | 27 | 356 | 1.0 | 1.0 | 0.00 | 0.00 | 0.01 | 6550.2 | |
| 20260507031712 | 27 | 66 | 0.0 | 2.0 | 0.00 | 0.00 | 0.01 | 6550.2 | |
| 20260507031509 | 27 | 90 | 0.0 | 2.0 | 0.00 | 0.00 | 0.01 | 6550.2 | |
| 20260507031304 | 27 | 331 | 1.0 | 2.0 | 0.00 | 0.00 | 0.01 | 6550.2 | |
| 20260507031101 | 27 | 324 | 1.0 | 3.0 | 0.00 | 0.00 | 0.01 | 6550.2 | |
| 20260507030653 | 27 | 339 | 2.0 | 3.0 | 0.00 | 0.00 | 0.01 | 6550.2 | |
| 20260507030449 | 27 | 325 | 1.0 | 1.0 | 0.00 | 0.00 | 0.01 | 6550.2 | |
| 20260507030323 | 27 | 0 | 0.0 | 1.0 | 0.00 | 0.00 | 0.01 | 6550.2 | |
| 20260507030245 | 27 | 0 | 0.0 | 1.0 | 0.00 | 0.00 | 0.01 | 6550.2 | |
| 20260507030122 | 27 | 327 | 0.0 | 3.0 | 0.00 | 0.00 | 0.01 | 6550.2 | |
| 20260507030040 | 27 | 327 | 0.0 | 3.0 | 0.00 | 0.00 | 0.01 | 6550.2 | |
| 20260507025837 | 27 | 301 | 0.0 | 3.0 | 0.00 | 0.00 | 0.01 | 6550.2 | |
| 20260507025632 | 27 | 45 | 0.0 | 1.0 | 0.00 | 0.00 | 0.01 | 6550.2 | |
| 20260507025503 | 27 | 315 | 0.0 | 2.0 | 0.00 | 0.00 | 0.01 | 6550.2 | |
| 20260507025429 | 27 | 315 | 0.0 | 2.0 | 0.00 | 0.00 | 0.01 | 6550.2 | |
| 20260507025224 | 27 | 313 | 0.0 | 3.0 | 0.00 | 0.00 | 0.01 | 6550.2 | |
| 20260507025055 | 27 | 312 | 0.0 | 3.0 | 0.00 | 0.00 | 0.00 | 6550.2 | |
| 20260507025021 | 27 | 312 | 0.0 | 3.0 | 0.00 | 0.00 | 0.00 | 6550.2 | |
| 20260507024816 | 27 | 293 | 1.0 | 3.0 | 0.00 | 0.00 | 0.00 | 6550.2 | |
| 20260507024613 | 27 | 61 | 0.0 | 2.0 | 0.00 | 0.00 | 0.00 | 6550.2 | |
| 20260507024408 | 27 | 331 | 1.0 | 1.0 | 0.00 | 0.00 | 0.00 | 6550.2 | |
| 20260507024205 | 27 | 89 | 0.0 | 2.0 | 0.00 | 0.00 | 0.00 | 6550.2 | |
| 20260507024000 | 27 | 50 | 0.0 | 2.0 | 0.00 | 0.00 | 0.00 | 6550.2 | |
| 20260507023757 | 27 | 341 | 0.0 | 2.0 | 0.00 | 0.00 | 0.00 | 6550.2 | |
| 20260507023349 | 27 | 340 | 0.0 | 2.0 | 0.00 | 0.00 | 0.00 | 6550.2 | |
| 20260507023145 | 27 | 313 | 1.0 | 2.0 | 0.00 | 0.00 | 0.00 | 6550.2 | |
| 20260507022737 | 27 | 299 | 0.0 | 4.0 | 0.00 | 0.00 | 0.00 | 6550.2 | |
| 20260507022533 | 27 | 307 | 1.0 | 4.0 | 0.00 | 0.00 | 0.00 | 6550.2 | |
| 20260507022400 | 27 | 315 | 0.0 | 2.0 | 0.00 | 0.00 | 0.00 | 6550.2 | |
| 20260507022329 | 27 | 315 | 0.0 | 2.0 | 0.00 | 0.00 | 0.00 | 6550.2 | |
| 20260507022208 | 27 | 350 | 1.0 | 2.0 | 0.00 | 0.00 | 0.00 | 6550.2 | |
| 20260507022125 | 27 | 350 | 1.0 | 2.0 | 0.00 | 0.00 | 0.00 | 6550.2 | |
| 20260507021921 | 27 | 338 | 0.0 | 1.0 | 0.00 | 0.00 | 0.00 | 6550.2 | |
| 20260507021825 | 27 | 294 | 1.0 | 1.0 | 0.00 | 0.00 | 0.00 | 6550.2 | |
| 20260507021717 | 27 | 294 | 1.0 | 1.0 | 0.00 | 0.00 | 0.00 | 6550.2 | |
| 20260507021513 | 27 | 225 | 0.0 | 2.0 | 0.00 | 0.00 | 0.00 | 6550.2 | |
| 20260507021309 | 27 | 270 | 0.0 | 2.0 | 0.00 | 0.00 | 0.00 | 6550.2 | |
| 20260507021105 | 27 | 317 | 1.0 | 2.0 | 0.00 | 0.00 | 0.00 | 6550.2 | |
| 20260507020901 | 27 | 319 | 1.0 | 2.0 | 0.00 | 0.00 | 0.00 | 6550.2 | |
| 20260507020657 | 27 | 224 | 0.0 | 3.0 | 0.00 | 0.00 | 0.00 | 6550.2 | |
| 20260507020542 | 27 | 301 | 1.0 | 3.0 | 0.00 | 0.00 | 0.00 | 6550.2 | |
| 20260507020453 | 27 | 301 | 1.0 | 3.0 | 0.00 | 0.00 | 0.00 | 6550.2 | |
| 20260507020249 | 27 | 289 | 0.0 | 2.0 | 0.00 | 0.00 | 0.00 | 6550.2 | |
| 20260507020117 | 27 | 335 | 1.0 | 2.0 | 0.00 | 0.00 | 0.00 | 6550.2 | |
| 20260507020045 | 27 | 335 | 1.0 | 2.0 | 0.00 | 0.00 | 0.00 | 6550.2 | |
| 20260507015934 | 27 | 339 | 1.0 | 2.0 | 0.00 | 0.00 | 0.00 | 6550.2 | |
| 20260507015841 | 27 | 339 | 1.0 | 2.0 | 0.00 | 0.00 | 0.00 | 6550.2 | |
| 20260507015637 | 27 | 315 | 1.0 | 3.0 | 0.00 | 0.00 | 0.00 | 6550.2 | |
| 20260507015433 | 27 | 279 | 1.0 | 3.0 | 0.00 | 0.00 | 0.00 | 6550.2 | |
| 20260507015229 | 27 | 312 | 1.0 | 3.0 | 0.00 | 0.00 | 0.00 | 6550.2 | |
| 20260507015025 | 27 | 341 | 2.0 | 3.0 | 0.00 | 0.00 | 0.00 | 6550.2 | |
| 20260507014821 | 27 | 319 | 1.0 | 3.0 | 0.00 | 0.00 | 0.00 | 6550.2 | |
| 20260507014413 | 27 | 296 | 2.0 | 4.0 | 0.00 | 0.00 | 0.00 | 6550.2 | |
| 20260507014209 | 27 | 328 | 2.0 | 4.0 | 0.00 | 0.00 | 0.00 | 6550.2 | |
| 20260507014005 | 27 | 294 | 3.0 | 4.0 | 0.00 | 0.00 | 0.00 | 6550.2 | |
| 20260507013801 | 27 | 340 | 1.0 | 3.0 | 0.00 | 0.00 | 0.00 | 6550.2 | |
| 20260507013557 | 27 | 333 | 2.0 | 3.0 | 0.00 | 0.00 | 0.00 | 6550.2 | |
| 20260507013353 | 27 | 346 | 1.0 | 4.0 | 0.00 | 0.00 | 0.00 | 6550.2 | |
| 20260507013149 | 27 | 313 | 3.0 | 4.0 | 0.00 | 0.00 | 0.00 | 6550.2 | |
| 20260507012945 | 27 | 351 | 1.0 | 4.0 | 0.00 | 0.00 | 0.00 | 6550.2 | |
| 20260507012741 | 27 | 325 | 1.0 | 4.0 | 0.00 | 0.00 | 0.00 | 6550.2 | |
| 20260507012333 | 27 | 306 | 3.0 | 3.0 | 0.00 | 0.00 | 0.00 | 6550.2 | |
| 20260507012129 | 27 | 315 | 1.0 | 4.0 | 0.00 | 0.00 | 0.00 | 6550.2 | |
| 20260507011925 | 27 | 299 | 1.0 | 4.0 | 0.00 | 0.00 | 0.00 | 6550.2 | |
| 20260507011517 | 27 | 315 | 1.0 | 4.0 | 0.00 | 0.00 | 0.00 | 6550.2 | |
| 20260507011313 | 27 | 270 | 2.0 | 2.0 | 0.00 | 0.00 | 0.00 | 6550.2 | |
| 20260507011109 | 27 | 45 | 1.0 | 2.0 | 0.00 | 0.00 | 0.00 | 6550.2 | |
| 20260507010905 | 27 | 45 | 0.0 | 2.0 | 0.00 | 0.00 | 0.00 | 6550.2 | |
| 20260507010701 | 27 | 312 | 1.0 | 2.0 | 0.00 | 0.00 | 0.00 | 6550.2 | |
| 20260507010457 | 27 | 300 | 1.0 | 3.0 | 0.00 | 0.00 | 0.00 | 6550.2 | |
| 20260507010253 | 27 | 79 | 1.0 | 3.0 | 0.00 | 0.00 | 0.00 | 6550.2 | |
| 20260507010131 | 27 | 26 | 3.0 | 3.0 | 0.00 | 0.00 | 0.00 | 6550.2 | |
| 20260507010049 | 27 | 26 | 3.0 | 3.0 | 0.00 | 0.00 | 0.00 | 6550.2 | |
| 20260507005845 | 27 | 302 | 0.0 | 2.0 | 0.00 | 0.00 | 0.00 | 6550.2 | |
| 20260507005641 | 27 | 304 | 1.0 | 2.0 | 0.00 | 0.00 | 0.00 | 6550.2 | |
| 20260507005437 | 27 | 45 | 0.0 | 2.0 | 0.00 | 0.00 | 0.00 | 6550.2 | |
| 20260507005233 | 27 | 276 | 0.0 | 2.0 | 0.00 | 0.00 | 0.00 | 6550.2 | |
| 20260507005029 | 27 | 0 | 1.0 | 4.0 | 0.00 | 0.00 | 0.00 | 6550.2 | |
| 20260507004621 | 27 | 324 | 3.0 | 4.0 | 0.00 | 0.00 | 0.00 | 6550.2 | |
| 20260507004417 | 27 | 44 | 1.0 | 1.0 | 0.00 | 0.00 | 0.00 | 6550.2 | |
| 20260507004214 | 27 | 112 | 0.0 | 0.0 | 0.00 | 0.00 | 0.00 | 6550.2 | |
| 20260507004022 | 27 | 135 | 0.0 | 2.0 | 0.00 | 0.00 | 0.01 | 6550.2 | |
| 20260507003818 | 27 | 90 | 0.0 | 2.0 | 0.00 | 0.00 | 0.01 | 6550.2 | |
| 20260507003614 | 27 | 25 | 0.0 | 3.0 | 0.00 | 0.00 | 0.01 | 6550.2 | |
| 20260507003206 | 27 | 37 | 1.0 | 4.0 | 0.00 | 0.00 | 0.01 | 6550.2 | |
| 20260507003002 | 27 | 354 | 1.0 | 4.0 | 0.00 | 0.00 | 0.01 | 6550.2 | |
| 20260507002758 | 27 | 316 | 4.0 | 4.0 | 0.00 | 0.00 | 0.01 | 6550.2 | |
| 20260507002554 | 27 | 321 | 2.0 | 4.0 | 0.00 | 0.00 | 0.01 | 6550.2 | |
| 20260507002350 | 27 | 317 | 2.0 | 4.0 | 0.00 | 0.00 | 0.01 | 6550.2 | |
| 20260507001942 | 27 | 317 | 1.0 | 4.0 | 0.00 | 0.00 | 0.01 | 6550.2 | |
| 20260507001738 | 27 | 327 | 3.0 | 4.0 | 0.00 | 0.00 | 0.01 | 6550.2 | |
| 20260507001534 | 27 | 315 | 0.0 | 3.0 | 0.00 | 0.00 | 0.01 | 6550.2 | |
| 20260507001330 | 27 | 359 | 1.0 | 3.0 | 0.00 | 0.00 | 0.01 | 6550.2 | |
| 20260507001126 | 27 | 0 | 1.0 | 2.0 | 0.00 | 0.00 | 0.01 | 6550.2 | |
| 20260507000922 | 27 | 22 | 0.0 | 2.0 | 0.00 | 0.00 | 0.01 | 6550.2 | |
| 20260507000514 | 27 | 281 | 0.0 | 2.0 | 0.00 | 0.00 | 0.01 | 6550.2 | |
| 20260507000310 | 27 | 90 | 0.0 | 2.0 | 0.00 | 0.00 | 0.01 | 6550.2 | |
| 20260507000142 | 27 | 74 | 1.0 | 1.0 | 0.00 | 0.00 | 0.01 | 6550.2 | |
| 20260507000106 | 27 | 74 | 1.0 | 1.0 | 0.00 | 0.00 | 0.01 | 6550.2 | |
| 20260506235902 | 27 | 337 | 1.0 | 1.0 | 0.00 | 0.00 | 0.01 | 6550.2 | |
| 20260506235658 | 27 | 243 | 0.0 | 1.0 | 0.00 | 0.00 | 0.01 | 6550.2 | |
| 20260506235454 | 27 | 324 | 1.0 | 3.0 | 0.00 | 0.00 | 0.01 | 6550.2 | |
| 20260506235250 | 27 | 315 | 0.0 | 3.0 | 0.00 | 0.00 | 0.01 | 6550.2 | |
| 20260506235046 | 27 | 18 | 1.0 | 4.0 | 0.00 | 0.00 | 0.01 | 6550.2 | |
| 20260506234842 | 27 | 45 | 0.0 | 4.0 | 0.00 | 0.00 | 0.01 | 6550.2 | |
| 20260506234638 | 27 | 279 | 3.0 | 3.0 | 0.00 | 0.00 | 0.01 | 6550.2 | |
| 20260506234434 | 27 | 0 | 1.0 | 1.0 | 0.00 | 0.00 | 0.01 | 6550.2 | |
| 20260506234306 | 27 | 89 | 0.0 | 2.0 | 0.00 | 0.00 | 0.01 | 6550.2 | |
| 20260506234230 | 27 | 89 | 0.0 | 2.0 | 0.00 | 0.00 | 0.01 | 6550.2 | |
| 20260506234026 | 27 | 234 | 0.0 | 2.0 | 0.00 | 0.00 | 0.01 | 6550.2 | |
| 20260506233822 | 27 | 90 | 0.0 | 2.0 | 0.00 | 0.00 | 0.00 | 6550.2 | |
| 20260506233618 | 27 | 329 | 0.0 | 2.0 | 0.00 | 0.00 | 0.00 | 6550.2 | |
| 20260506233414 | 27 | 270 | 0.0 | 4.0 | 0.00 | 0.00 | 0.00 | 6550.2 | |
| 20260506233210 | 27 | 16 | 1.0 | 4.0 | 0.00 | 0.00 | 0.00 | 6550.2 | |
| 20260506233006 | 27 | 18 | 3.0 | 4.0 | 0.00 | 0.00 | 0.00 | 6550.2 | |
| 20260506232802 | 27 | 333 | 2.0 | 4.0 | 0.00 | 0.00 | 0.00 | 6550.2 | |
| 20260506232558 | 27 | 349 | 2.0 | 4.0 | 0.00 | 0.00 | 0.00 | 6550.2 | |
| 20260506232354 | 27 | 0 | 0.0 | 3.0 | 0.00 | 0.00 | 0.00 | 6550.2 | |
| 20260506232241 | 27 | 103 | 1.0 | 1.0 | 0.00 | 0.00 | 0.00 | 6550.2 | |
| 20260506232234 | 27 | 44 | 4.0 | 4.0 | 0.00 | 0.00 | 0.00 | 6550.2 | |
| 20260506232150 | 27 | 103 | 1.0 | 1.0 | 0.00 | 0.00 | 0.00 | 6550.2 | |
| 20260506232142 | 27 | 44 | 4.0 | 4.0 | 0.00 | 0.00 | 0.00 | 6550.2 | |
| 20260506231734 | 27 | 42 | 2.0 | 4.0 | 0.00 | 0.00 | 0.00 | 6550.2 | |
| 20260506231702 | 27 | 76 | 3.0 | 4.0 | 0.00 | 0.00 | 0.00 | 6550.2 | |
| 20260506231530 | 27 | 76 | 3.0 | 4.0 | 0.00 | 0.00 | 0.00 | 6550.2 | |
| 20260506231326 | 27 | 13 | 3.0 | 3.0 | 0.00 | 0.00 | 0.00 | 6550.2 | |
| 20260506231122 | 27 | 109 | 1.0 | 2.0 | 0.00 | 0.00 | 0.00 | 6550.2 | |
| 20260506231000 | 27 | 58 | 2.0 | 5.0 | 0.00 | 0.00 | 0.00 | 6550.2 | |
| 20260506230918 | 27 | 58 | 2.0 | 5.0 | 0.00 | 0.00 | 0.00 | 6550.2 | |
| 20260506230714 | 27 | 82 | 2.0 | 5.0 | 0.00 | 0.00 | 0.00 | 6550.2 | |
| 20260506230558 | 27 | 359 | 3.0 | 4.0 | 0.00 | 0.00 | 0.00 | 6550.2 | |
| 20260506230510 | 27 | 359 | 3.0 | 4.0 | 0.00 | 0.00 | 0.00 | 6550.2 | |
| 20260506230306 | 27 | 44 | 2.0 | 4.0 | 0.00 | 0.00 | 0.00 | 6550.2 | |
| 20260506230138 | 27 | 91 | 0.0 | 4.0 | 0.00 | 0.00 | 0.00 | 6550.2 | |
| 20260506225858 | 27 | 338 | 2.0 | 4.0 | 0.00 | 0.00 | 0.00 | 6550.2 | |
| 20260506225654 | 27 | 337 | 2.0 | 5.0 | 0.00 | 0.00 | 0.00 | 6550.2 | |
| 20260506225450 | 27 | 307 | 1.0 | 5.0 | 0.00 | 0.00 | 0.00 | 6550.2 | |
| 20260506225246 | 27 | 33 | 2.0 | 5.0 | 0.00 | 0.00 | 0.00 | 6550.2 | |
| 20260506225042 | 27 | 327 | 2.0 | 4.0 | 0.00 | 0.00 | 0.00 | 6550.2 | |
| 20260506224838 | 27 | 331 | 4.0 | 4.0 | 0.00 | 0.00 | 0.00 | 6550.2 | |
| 20260506224712 | 27 | 331 | 4.0 | 4.0 | 0.00 | 0.00 | 0.00 | 6550.2 | |
| 20260506224634 | 27 | 331 | 4.0 | 4.0 | 0.00 | 0.00 | 0.00 | 6550.2 | |
| 20260506224505 | 27 | 20 | 0.0 | 4.0 | 0.00 | 0.00 | 0.00 | 6550.2 | |
| 20260506224430 | 27 | 20 | 0.0 | 4.0 | 0.00 | 0.00 | 0.00 | 6550.2 | |
| 20260506224022 | 27 | 6 | 1.0 | 4.0 | 0.00 | 0.00 | 0.00 | 6550.2 | |
| 20260506223818 | 27 | 275 | 1.0 | 4.0 | 0.00 | 0.00 | 0.00 | 6550.2 | |
| 20260506223659 | 27 | 326 | 2.0 | 3.0 | 0.00 | 0.00 | 0.00 | 6550.2 | |
| 20260506223614 | 27 | 326 | 2.0 | 3.0 | 0.00 | 0.00 | 0.00 | 6550.2 | |
| 20260506223446 | 27 | 289 | 1.0 | 3.0 | 0.00 | 0.00 | 0.00 | 6550.2 | |
| 20260506223411 | 27 | 289 | 1.0 | 3.0 | 0.00 | 0.00 | 0.00 | 6550.2 | |
| 20260506223105 | 27 | 352 | 1.0 | 3.0 | 0.00 | 0.00 | 0.00 | 6550.2 | |
| 20260506223003 | 27 | 352 | 1.0 | 3.0 | 0.00 | 0.00 | 0.00 | 6550.2 | |
| 20260506222758 | 27 | 273 | 1.0 | 4.0 | 0.00 | 0.00 | 0.00 | 6550.2 | |
| 20260506222627 | 27 | 261 | 0.0 | 4.0 | 0.00 | 0.00 | 0.00 | 6550.2 | |
| 20260506222555 | 27 | 261 | 0.0 | 4.0 | 0.00 | 0.00 | 0.00 | 6550.2 | |
| 20260506222350 | 27 | 333 | 3.0 | 5.0 | 0.00 | 0.00 | 0.00 | 6550.2 | |
| 20260506222147 | 27 | 324 | 4.0 | 5.0 | 0.00 | 0.00 | 0.00 | 6550.2 | |
| 20260506221942 | 27 | 305 | 3.0 | 3.0 | 0.00 | 0.00 | 0.00 | 6550.2 | |
| 20260506221739 | 27 | 99 | 0.0 | 0.0 | 0.00 | 0.00 | 0.00 | 6550.2 | |
| 20260506221614 | 27 | 18 | 1.0 | 5.0 | 0.00 | 0.00 | 0.00 | 6550.2 | |
| 20260506221410 | 27 | 330 | 4.0 | 5.0 | 0.00 | 0.00 | 0.00 | 6550.2 | |
| 20260506221247 | 27 | 0 | 1.0 | 5.0 | 0.00 | 0.00 | 0.00 | 6550.2 | |
| 20260506221206 | 27 | 0 | 1.0 | 5.0 | 0.00 | 0.00 | 0.00 | 6550.2 | |
| 20260506221002 | 27 | 335 | 1.0 | 5.0 | 0.00 | 0.00 | 0.00 | 6550.2 | |
| 20260506220758 | 27 | 318 | 4.0 | 5.0 | 0.00 | 0.00 | 0.00 | 6550.2 | |
| 20260506220554 | 27 | 53 | 3.0 | 5.0 | 0.00 | 0.00 | 0.00 | 6550.2 | |
| 20260506220350 | 27 | 325 | 3.0 | 6.0 | 0.00 | 0.00 | 0.00 | 6550.2 | |
| 20260506220228 | 27 | 8 | 1.0 | 6.0 | 0.00 | 0.00 | 0.00 | 6550.2 | |
| 20260506220146 | 27 | 8 | 1.0 | 6.0 | 0.00 | 0.00 | 0.00 | 6550.2 | |
| 20260506215942 | 27 | 358 | 2.0 | 6.0 | 0.00 | 0.00 | 0.00 | 6550.2 | |
| 20260506215738 | 27 | 358 | 3.0 | 6.0 | 0.00 | 0.00 | 0.00 | 6550.2 | |
| 20260506215534 | 27 | 325 | 1.0 | 5.0 | 0.00 | 0.00 | 0.00 | 6550.2 | |
| 20260506215330 | 27 | 328 | 4.0 | 5.0 | 0.00 | 0.00 | 0.00 | 6550.2 | |
| 20260506215126 | 27 | 351 | 3.0 | 5.0 | 0.00 | 0.00 | 0.00 | 6550.2 | |
| 20260506214922 | 27 | 322 | 1.0 | 4.0 | 0.00 | 0.00 | 0.01 | 6550.2 | |
| 20260506214718 | 27 | 326 | 1.0 | 4.0 | 0.00 | 0.00 | 0.01 | 6550.2 | |
| 20260506214514 | 27 | 221 | 2.0 | 7.0 | 0.00 | 0.00 | 0.01 | 6550.2 | |
| 20260506214310 | 27 | 20 | 1.0 | 8.0 | 0.00 | 0.00 | 0.01 | 6550.2 | |
| 20260506214147 | 27 | 311 | 6.0 | 8.0 | 0.00 | 0.00 | 0.01 | 6550.2 | |
| 20260506214106 | 27 | 311 | 6.0 | 8.0 | 0.00 | 0.00 | 0.01 | 6550.2 | |
| 20260506213902 | 27 | 333 | 5.0 | 8.0 | 0.00 | 0.00 | 0.01 | 6550.2 | |
| 20260506213658 | 27 | 52 | 5.0 | 5.0 | 0.00 | 0.00 | 0.01 | 6550.2 | |
| 20260506213454 | 27 | 318 | 3.0 | 4.0 | 0.00 | 0.00 | 0.01 | 6550.2 | |
| 20260506213250 | 27 | 5 | 1.0 | 5.0 | 0.00 | 0.00 | 0.01 | 6550.2 | |
| 20260506213046 | 27 | 308 | 3.0 | 5.0 | 0.00 | 0.00 | 0.01 | 6550.2 | |
| 20260506212842 | 27 | 324 | 3.0 | 5.0 | 0.00 | 0.00 | 0.01 | 6550.2 | |
| 20260506212638 | 27 | 314 | 2.0 | 3.0 | 0.00 | 0.00 | 0.01 | 6550.2 | |
| 20260506212434 | 27 | 358 | 1.0 | 5.0 | 0.00 | 0.00 | 0.01 | 6550.2 | |
| 20260506212230 | 27 | 236 | 0.0 | 6.0 | 0.00 | 0.00 | 0.01 | 6550.2 | |
| 20260506212124 | 27 | 354 | 1.0 | 6.0 | 0.00 | 0.00 | 0.01 | 6550.2 | |
| 20260506212026 | 27 | 354 | 1.0 | 6.0 | 0.00 | 0.00 | 0.01 | 6550.2 | |
| 20260506211853 | 27 | 292 | 3.0 | 6.0 | 0.00 | 0.00 | 0.01 | 6550.2 | |
| 20260506211822 | 27 | 292 | 3.0 | 6.0 | 0.00 | 0.00 | 0.01 | 6550.2 | |
| 20260506211618 | 27 | 337 | 4.0 | 6.0 | 0.00 | 0.00 | 0.01 | 6550.2 | |
| 20260506211414 | 27 | 65 | 2.0 | 6.0 | 0.00 | 0.00 | 0.01 | 6550.2 | |
| 20260506211210 | 27 | 339 | 3.0 | 6.0 | 0.00 | 0.00 | 0.01 | 6550.2 | |
| 20260506211006 | 27 | 333 | 5.0 | 8.0 | 0.00 | 0.00 | 0.01 | 6550.2 | |
| 20260506210802 | 27 | 310 | 2.0 | 8.0 | 0.00 | 0.00 | 0.01 | 6550.2 | |
| 20260506210558 | 27 | 320 | 7.0 | 7.0 | 0.00 | 0.00 | 0.01 | 6550.2 | |
| 20260506210441 | 27 | 321 | 4.0 | 5.0 | 0.00 | 0.00 | 0.01 | 6550.2 | |
| 20260506210354 | 27 | 321 | 4.0 | 5.0 | 0.00 | 0.00 | 0.01 | 6550.2 | |
| 20260506210150 | 27 | 342 | 2.0 | 5.0 | 0.00 | 0.00 | 0.01 | 6550.2 | |
| 20260506210040 | 27 | 43 | 3.0 | 5.0 | 0.00 | 0.00 | 0.01 | 6550.2 | |
| 20260506205946 | 27 | 43 | 3.0 | 5.0 | 0.00 | 0.00 | 0.01 | 6550.2 | |
| 20260506205742 | 27 | 315 | 1.0 | 5.0 | 0.00 | 0.00 | 0.01 | 6550.2 | |
| 20260506205538 | 27 | 345 | 2.0 | 7.0 | 0.00 | 0.00 | 0.01 | 6550.2 | |
| 20260506205334 | 27 | 335 | 5.0 | 7.0 | 0.00 | 0.00 | 0.01 | 6550.2 | |
| 20260506205130 | 27 | 329 | 5.0 | 7.0 | 0.00 | 0.00 | 0.01 | 6550.2 | |
| 20260506204926 | 27 | 325 | 2.0 | 7.0 | 0.00 | 0.00 | 0.01 | 6550.2 | |
| 20260506204722 | 27 | 296 | 6.0 | 6.0 | 0.00 | 0.00 | 0.01 | 6550.2 | |
| 20260506204518 | 27 | 316 | 1.0 | 6.0 | 0.00 | 0.00 | 0.01 | 6550.2 | |
| 20260506204314 | 27 | 343 | 4.0 | 5.0 | 0.00 | 0.00 | 0.01 | 6550.2 | |
| 20260506204110 | 27 | 305 | 2.0 | 6.0 | 0.00 | 0.00 | 0.01 | 6550.2 | |
| 20260506203955 | 27 | 303 | 3.0 | 6.0 | 0.00 | 0.00 | 0.01 | 6550.2 | |
| 20260506203906 | 27 | 303 | 3.0 | 6.0 | 0.00 | 0.00 | 0.01 | 6550.2 | |
| 20260506203702 | 27 | 285 | 4.0 | 7.0 | 0.00 | 0.00 | 0.01 | 6550.2 | |
| 20260506203254 | 27 | 315 | 7.0 | 7.0 | 0.00 | 0.00 | 0.01 | 6550.2 | |
| 20260506203050 | 27 | 322 | 3.0 | 7.0 | 0.00 | 0.00 | 0.01 | 6550.2 | |
| 20260506202937 | 27 | 331 | 5.0 | 7.0 | 0.00 | 0.00 | 0.01 | 6550.2 | |
| 20260506202846 | 27 | 331 | 5.0 | 7.0 | 0.00 | 0.00 | 0.01 | 6550.2 | |
| 20260506202714 | 27 | 305 | 5.0 | 8.0 | 0.00 | 0.00 | 0.00 | 6550.2 | |
| 20260506202643 | 27 | 305 | 5.0 | 8.0 | 0.00 | 0.00 | 0.00 | 6550.2 | |
| 20260506202438 | 27 | 299 | 3.0 | 8.0 | 0.00 | 0.00 | 0.00 | 6550.2 | |
| 20260506202235 | 27 | 348 | 5.0 | 8.0 | 0.00 | 0.00 | 0.00 | 6550.2 | |
| 20260506202030 | 27 | 326 | 6.0 | 9.0 | 0.00 | 0.00 | 0.00 | 6550.2 | |
| 20260506201827 | 27 | 347 | 5.0 | 9.0 | 0.00 | 0.00 | 0.00 | 6550.2 | |
| 20260506201419 | 27 | 334 | 5.0 | 6.0 | 0.00 | 0.00 | 0.00 | 6550.2 | |
| 20260506201214 | 27 | 322 | 3.0 | 7.0 | 0.00 | 0.00 | 0.00 | 6550.2 | |
| 20260506201011 | 27 | 301 | 4.0 | 9.0 | 0.00 | 0.00 | 0.00 | 6550.2 | |
| 20260506200603 | 27 | 325 | 4.0 | 9.0 | 0.00 | 0.00 | 0.00 | 6550.2 | |
| 20260506200300 | 27 | 298 | 2.0 | 5.0 | 0.00 | 0.00 | 0.00 | 6550.2 | |
| 20260506200155 | 27 | 298 | 2.0 | 5.0 | 0.00 | 0.00 | 0.00 | 6550.2 | |
| 20260506195950 | 27 | 303 | 3.0 | 5.0 | 0.00 | 0.00 | 0.00 | 6550.2 | |
| 20260506195747 | 27 | 312 | 4.0 | 9.0 | 0.00 | 0.00 | 0.00 | 6550.2 | |
| 20260506195542 | 27 | 319 | 3.0 | 9.0 | 0.00 | 0.00 | 0.00 | 6550.2 | |
| 20260506195417 | 27 | 259 | 2.0 | 7.0 | 0.00 | 0.00 | 0.00 | 6550.2 | |
| 20260506195339 | 27 | 259 | 2.0 | 7.0 | 0.00 | 0.00 | 0.00 | 6550.2 | |
| 20260506195134 | 27 | 302 | 6.0 | 7.0 | 0.00 | 0.00 | 0.00 | 6550.2 | |
| 20260506194931 | 27 | 298 | 2.0 | 6.0 | 0.00 | 0.00 | 0.00 | 6550.2 | |
| 20260506194727 | 27 | 323 | 5.0 | 7.0 | 0.00 | 0.00 | 0.00 | 6550.2 | |
| 20260506194523 | 27 | 284 | 2.0 | 7.0 | 0.00 | 0.00 | 0.00 | 6550.2 | |
| 20260506194318 | 27 | 303 | 4.0 | 10.0 | 0.00 | 0.00 | 0.00 | 6550.2 | |
| 20260506194115 | 27 | 301 | 7.0 | 10.0 | 0.00 | 0.00 | 0.00 | 6550.2 | |
| 20260506193911 | 27 | 314 | 6.0 | 10.0 | 0.00 | 0.00 | 0.00 | 6550.2 | |
| 20260506193707 | 27 | 320 | 3.0 | 8.0 | 0.00 | 0.00 | 0.00 | 6550.2 | |
| 20260506193503 | 27 | 338 | 5.0 | 8.0 | 0.00 | 0.00 | 0.00 | 6550.2 | |
| 20260506193259 | 27 | 329 | 2.0 | 6.0 | 0.00 | 0.00 | 0.00 | 6550.2 | |
| 20260506193055 | 27 | 331 | 2.0 | 6.0 | 0.00 | 0.00 | 0.00 | 6550.2 | |
| 20260506192851 | 27 | 296 | 4.0 | 7.0 | 0.00 | 0.00 | 0.00 | 6550.2 | |
| 20260506192647 | 27 | 322 | 5.0 | 7.0 | 0.00 | 0.00 | 0.00 | 6550.2 | |
| 20260506192443 | 27 | 288 | 7.0 | 8.0 | 0.00 | 0.00 | 0.00 | 6550.2 | |
| 20260506192239 | 27 | 280 | 2.0 | 8.0 | 0.00 | 0.00 | 0.00 | 6550.2 | |
| 20260506192035 | 27 | 289 | 3.0 | 8.0 | 0.00 | 0.00 | 0.00 | 6550.2 | |
| 20260506191831 | 27 | 300 | 6.0 | 8.0 | 0.00 | 0.00 | 0.00 | 6550.2 | |
| 20260506191627 | 27 | 305 | 2.0 | 10.0 | 0.00 | 0.00 | 0.00 | 6550.2 | |
| 20260506191456 | 27 | 327 | 4.0 | 10.0 | 0.00 | 0.00 | 0.00 | 6550.2 | |
| 20260506191423 | 27 | 327 | 4.0 | 10.0 | 0.00 | 0.00 | 0.00 | 6550.2 | |
| 20260506191219 | 27 | 291 | 5.0 | 8.0 | 0.00 | 0.00 | 0.00 | 6550.2 | |
| 20260506191052 | 27 | 274 | 4.0 | 10.0 | 0.00 | 0.00 | 0.00 | 6550.2 | |
| 20260506191015 | 27 | 274 | 4.0 | 10.0 | 0.00 | 0.00 | 0.00 | 6550.2 | |
| 20260506190811 | 27 | 298 | 4.0 | 10.0 | 0.00 | 0.00 | 0.00 | 6550.2 | |
| 20260506190607 | 27 | 299 | 7.0 | 10.0 | 0.00 | 0.00 | 0.00 | 6550.2 | |
| 20260506190403 | 27 | 291 | 7.0 | 9.0 | 0.00 | 0.00 | 0.00 | 6550.2 | |
| 20260506190159 | 27 | 329 | 6.0 | 9.0 | 0.00 | 0.00 | 0.00 | 6550.2 | |
| 20260506185955 | 27 | 292 | 5.0 | 11.0 | 0.00 | 0.00 | 0.00 | 6550.2 | |
| 20260506185751 | 27 | 294 | 5.0 | 11.0 | 0.00 | 0.00 | 0.00 | 6550.2 | |
| 20260506185547 | 27 | 313 | 5.0 | 9.0 | 0.00 | 0.00 | 0.00 | 6550.2 | |
| 20260506185343 | 27 | 296 | 5.0 | 9.0 | 0.00 | 0.00 | 0.00 | 6550.2 | |
| 20260506185139 | 27 | 290 | 9.0 | 9.0 | 0.00 | 0.00 | 0.00 | 6550.2 | |
| 20260506184935 | 27 | 290 | 6.0 | 10.0 | 0.00 | 0.00 | 0.00 | 6550.2 | |
| 20260506184731 | 27 | 312 | 5.0 | 10.0 | 0.00 | 0.00 | 0.00 | 6550.2 | |
| 20260506184527 | 27 | 293 | 6.0 | 10.0 | 0.00 | 0.00 | 0.00 | 6550.2 | |
| 20260506184323 | 27 | 294 | 5.0 | 8.0 | 0.00 | 0.00 | 0.00 | 6550.2 | |
| 20260506184119 | 27 | 308 | 7.0 | 8.0 | 0.00 | 0.00 | 0.00 | 6550.2 | |
| 20260506183915 | 27 | 300 | 7.0 | 8.0 | 0.00 | 0.00 | 0.00 | 6550.2 | |
| 20260506183711 | 27 | 312 | 2.0 | 8.0 | 0.00 | 0.00 | 0.00 | 6550.2 | |
| 20260506183507 | 27 | 296 | 6.0 | 10.0 | 0.00 | 0.00 | 0.00 | 6550.2 | |
| 20260506183349 | 27 | 297 | 5.0 | 10.0 | 0.00 | 0.00 | 0.00 | 6550.2 | |
| 20260506183303 | 27 | 297 | 5.0 | 10.0 | 0.00 | 0.00 | 0.00 | 6550.2 | |
| 20260506183059 | 27 | 301 | 7.0 | 10.0 | 0.00 | 0.00 | 0.00 | 6550.2 | |
| 20260506182855 | 27 | 287 | 7.0 | 10.0 | 0.00 | 0.00 | 0.00 | 6550.2 | |
| 20260506182243 | 27 | 315 | 4.0 | 8.0 | 0.00 | 0.00 | 0.00 | 6550.2 | |
| 20260506182039 | 27 | 325 | 7.0 | 10.0 | 0.00 | 0.00 | 0.00 | 6550.2 | |
| 20260506181835 | 27 | 318 | 8.0 | 10.0 | 0.00 | 0.00 | 0.00 | 6550.2 | |
| 20260506181427 | 27 | 317 | 5.0 | 10.0 | 0.00 | 0.00 | 0.00 | 6550.2 | |
| 20260506181020 | 27 | 112 | 2.0 | 2.0 | 0.00 | 0.00 | 0.00 | 6550.2 | |
| 20260506180651 | 27 | 302 | 7.0 | 10.0 | 0.00 | 0.00 | 0.00 | 6550.2 | |
| 20260506180243 | 27 | 266 | 8.0 | 11.0 | 0.00 | 0.00 | 0.00 | 6550.2 | |
| 20260506180039 | 27 | 290 | 7.0 | 14.0 | 0.00 | 0.00 | 0.00 | 6550.2 | |
| 20260506175835 | 27 | 309 | 8.0 | 14.0 | 0.00 | 0.00 | 0.00 | 6550.2 | |
| 20260506175631 | 27 | 289 | 9.0 | 9.0 | 0.00 | 0.00 | 0.00 | 6550.2 | |
| 20260506175428 | 27 | 294 | 8.0 | 10.0 | 0.00 | 0.00 | 0.00 | 6550.2 | |
| 20260506175223 | 27 | 295 | 8.0 | 10.0 | 0.00 | 0.00 | 0.00 | 6550.2 | |
| 20260506175020 | 27 | 308 | 4.0 | 10.0 | 0.00 | 0.00 | 0.00 | 6550.2 | |
| 20260506174815 | 27 | 311 | 6.0 | 9.0 | 0.00 | 0.00 | 0.00 | 6550.2 | |
| 20260506174612 | 27 | 293 | 8.0 | 10.0 | 0.00 | 0.00 | 0.00 | 6550.2 | |
| 20260506174204 | 27 | 279 | 8.0 | 12.0 | 0.00 | 0.00 | 0.00 | 6550.2 | |
| 20260506173959 | 27 | 316 | 10.0 | 13.0 | 0.00 | 0.00 | 0.00 | 6550.2 | |
| 20260506173756 | 27 | 302 | 10.0 | 13.0 | 0.00 | 0.00 | 0.00 | 6550.2 | |
| 20260506173348 | 27 | 288 | 6.0 | 10.0 | 0.00 | 0.00 | 0.00 | 6550.2 | |
| 20260506172940 | 27 | 292 | 3.0 | 11.0 | 0.00 | 0.00 | 0.00 | 6550.2 | |
| 20260506172735 | 27 | 304 | 9.0 | 11.0 | 0.00 | 0.00 | 0.00 | 6550.2 | |
| 20260506172532 | 27 | 304 | 7.0 | 11.0 | 0.00 | 0.00 | 0.00 | 6550.2 | |
| 20260506172327 | 27 | 313 | 10.0 | 11.0 | 0.00 | 0.00 | 0.00 | 6550.2 | |
| 20260506172124 | 27 | 308 | 5.0 | 10.0 | 0.00 | 0.00 | 0.00 | 6550.2 | |
| 20260506171716 | 27 | 303 | 10.0 | 10.0 | 0.00 | 0.00 | 0.00 | 6550.2 | |
| 20260506171511 | 27 | 306 | 11.0 | 21.0 | 0.00 | 0.00 | 0.00 | 6550.2 | |
| 20260506170900 | 27 | 313 | 8.0 | 12.0 | 0.00 | 0.00 | 0.00 | 6550.2 | |
| 20260506170248 | 27 | 275 | 7.0 | 11.0 | 0.00 | 0.00 | 0.00 | 6550.2 | |
| 20260506162536 | 27 | 337 | 7.0 | 9.0 | 0.00 | 0.00 | 0.00 | 6550.2 | |
| 20260506162128 | 27 | 295 | 8.0 | 10.0 | 0.00 | 0.00 | 0.00 | 6550.2 | |
| 20260506161924 | 27 | 330 | 6.0 | 10.0 | 0.00 | 0.00 | 0.00 | 6550.2 | |
| 20260506160700 | 27 | 290 | 6.0 | 10.0 | 0.00 | 0.00 | 0.00 | 6550.2 | |
| 20260506160048 | 27 | 284 | 5.0 | 13.0 | 0.00 | 0.00 | 0.00 | 6550.2 | |
| 20260506154212 | 27 | 339 | 8.0 | 10.0 | 0.00 | 0.00 | 0.00 | 6550.2 | |
| 20260506145026 | 27 | 309 | 5.0 | 9.0 | 0.00 | 0.00 | 0.00 | 6550.2 | |
| 20260506144211 | 27 | 301 | 6.0 | 8.0 | 0.00 | 0.00 | 0.00 | 6550.2 | |
| 20260506144006 | 27 | 322 | 3.0 | 6.0 | 0.00 | 0.00 | 0.00 | 6550.2 | |
| 20260506140159 | 27 | 23 | 4.0 | 5.0 | 0.00 | 0.00 | 0.00 | 6550.2 | |
| 20260506135955 | 27 | 4 | 3.0 | 8.0 | 0.00 | 0.00 | 0.00 | 6550.2 | |
| 20260506135343 | 27 | 285 | 7.0 | 10.0 | 0.00 | 0.00 | 0.00 | 6550.2 | |
| 20260506134935 | 27 | 307 | 6.0 | 11.0 | 0.00 | 0.00 | 0.00 | 6550.2 | |
| 20260506134527 | 27 | 290 | 6.0 | 7.0 | 0.00 | 0.00 | 0.00 | 6550.2 | |
| 20260506134323 | 27 | 326 | 5.0 | 7.0 | 0.00 | 0.00 | 0.00 | 6550.2 | |
| 20260506134119 | 27 | 277 | 3.0 | 11.0 | 0.00 | 0.00 | 0.00 | 6550.2 | |
| 20260506125755 | 27 | 283 | 2.0 | 9.0 | 0.00 | 0.00 | 0.00 | 6550.2 | |
| 20260506125551 | 27 | 311 | 7.0 | 10.0 | 0.00 | 0.00 | 0.00 | 6550.2 | |
| 20260506125347 | 27 | 342 | 6.0 | 10.0 | 0.00 | 0.00 | 0.00 | 6550.2 | |
| 20260506125143 | 27 | 308 | 5.0 | 10.0 | 0.00 | 0.00 | 0.00 | 6550.2 | |
| 20260506124940 | 27 | 316 | 2.0 | 9.0 | 0.00 | 0.00 | 0.00 | 6550.2 | |
| 20260506121024 | 27 | 280 | 3.0 | 7.0 | 0.00 | 0.00 | 0.00 | 6550.2 | |
| 20260506120820 | 27 | 274 | 2.0 | 12.0 | 0.00 | 0.00 | 0.00 | 6550.2 | |
| 20260506120616 | 27 | 294 | 5.0 | 12.0 | 0.00 | 0.00 | 0.00 | 6550.2 | |
| 20260506120208 | 27 | 272 | 4.0 | 8.0 | 0.00 | 0.00 | 0.00 | 6550.2 | |
| 20260506120004 | 27 | 351 | 4.0 | 8.0 | 0.00 | 0.00 | 0.00 | 6550.2 | |
| 20260506114332 | 27 | 313 | 10.0 | 14.0 | 0.00 | 0.00 | 0.00 | 6550.2 | |
| 20260506114128 | 27 | 274 | 3.0 | 5.0 | 0.00 | 0.00 | 0.00 | 6550.2 | |
| 20260506113839 | 27 | 60 | 8.0 | 8.0 | 0.00 | 0.00 | 0.01 | 6550.2 | |
| 20260506113635 | 27 | 56 | 3.0 | 7.0 | 0.00 | 0.00 | 0.01 | 6550.2 | |
| 20260506112233 | 27 | 328 | 10.0 | 10.0 | 0.00 | 0.00 | 0.01 | 6550.2 | |
| 20260506105355 | 27 | 278 | 5.0 | 7.0 | 0.00 | 0.00 | 0.01 | 6550.2 | |
| 20260506102416 | 27 | 317 | 4.0 | 7.0 | 0.00 | 0.00 | 0.00 | 6550.2 | |
| 20260506102007 | 27 | 277 | 2.0 | 8.0 | 0.00 | 0.00 | 0.00 | 6550.2 | |
| 20260506101623 | 27 | 286 | 4.0 | 6.0 | 0.00 | 0.00 | 0.00 | 6550.2 | |
| 20260506101226 | 27 | 318 | 3.0 | 8.0 | 0.00 | 0.00 | 0.00 | 6550.2 | |
| 20260506101152 | 27 | 318 | 3.0 | 8.0 | 0.00 | 0.00 | 0.00 | 6550.2 | |
| 20260506100805 | 27 | 306 | 6.0 | 7.0 | 0.00 | 0.00 | 0.00 | 6550.2 | |
| 20260506100556 | 27 | 311 | 4.0 | 8.0 | 0.00 | 0.00 | 0.00 | 6550.2 | |
| 20260506100144 | 27 | 355 | 4.0 | 7.0 | 0.00 | 0.00 | 0.00 | 6550.2 | |
| 20260506100034 | 27 | 355 | 4.0 | 8.0 | 0.00 | 0.00 | 0.00 | 6550.2 | |
| 20260506095928 | 27 | 355 | 4.0 | 8.0 | 0.00 | 0.00 | 0.00 | 6550.2 | |
| 20260506095557 | 27 | 340 | 5.0 | 8.0 | 0.00 | 0.00 | 0.00 | 6550.2 | |
| 20260506095316 | 27 | 328 | 3.0 | 6.0 | 0.00 | 0.00 | 0.00 | 6550.2 | |
| 20260506094936 | 27 | 319 | 2.0 | 9.0 | 0.00 | 0.00 | 0.00 | 6550.2 | |
| 20260506094730 | 27 | 308 | 6.0 | 9.0 | 0.00 | 0.00 | 0.00 | 6550.2 | |
| 20260506094214 | 27 | 339 | 5.0 | 7.0 | 0.00 | 0.00 | 0.00 | 6550.2 | |
| 20260506091446 | 27 | 291 | 6.0 | 7.0 | 0.00 | 0.00 | 0.00 | 6550.2 | |
| 20260506091242 | 27 | 329 | 4.0 | 7.0 | 0.00 | 0.00 | 0.00 | 6550.2 | |
| 20260506091039 | 27 | 325 | 4.0 | 6.0 | 0.00 | 0.00 | 0.00 | 6550.2 | |
| 20260506090630 | 27 | 51 | 4.0 | 5.0 | 0.00 | 0.00 | 0.00 | 6550.2 | |
| 20260506090426 | 27 | 38 | 4.0 | 6.0 | 0.00 | 0.00 | 0.00 | 6550.2 | |
| 20260506090222 | 27 | 27 | 3.0 | 6.0 | 0.00 | 0.00 | 0.00 | 6550.2 | |
| 20260506090018 | 27 | 347 | 2.0 | 6.0 | 0.00 | 0.00 | 0.00 | 6550.2 | |
| 20260506085814 | 27 | 274 | 2.0 | 7.0 | 0.00 | 0.00 | 0.00 | 6550.2 | |
| 20260506085610 | 27 | 58 | 1.0 | 7.0 | 0.00 | 0.00 | 0.00 | 6550.2 | |
| 20260506085406 | 27 | 316 | 3.0 | 7.0 | 0.00 | 0.00 | 0.00 | 6550.2 | |
| 20260506085202 | 27 | 322 | 3.0 | 4.0 | 0.00 | 0.00 | 0.00 | 6550.2 | |
| 20260506084550 | 27 | 320 | 4.0 | 6.0 | 0.00 | 0.00 | 0.00 | 6550.2 | |
| 20260506084347 | 27 | 283 | 2.0 | 6.0 | 0.00 | 0.00 | 0.00 | 6550.2 | |
| 20260506083939 | 27 | 328 | 3.0 | 5.0 | 0.00 | 0.00 | 0.00 | 6550.2 | |
| 20260506083825 | 27 | 319 | 4.0 | 6.0 | 0.00 | 0.00 | 0.00 | 6550.2 | |
| 20260506083122 | 27 | 334 | 5.0 | 6.0 | 0.00 | 0.00 | 0.00 | 6550.2 | |
| 20260506082918 | 27 | 301 | 3.0 | 5.0 | 0.00 | 0.00 | 0.00 | 6550.2 | |
| 20260506082510 | 27 | 343 | 4.0 | 5.0 | 0.00 | 0.00 | 0.00 | 6550.2 | |
| 20260506082313 | 27 | 44 | 3.0 | 4.0 | 0.00 | 0.00 | 0.00 | 6550.2 | |
| 20260506082306 | 27 | 103 | 0.0 | 0.0 | 0.00 | 0.00 | 0.00 | 6550.2 | |
| 20260506082234 | 27 | 44 | 3.0 | 4.0 | 0.00 | 0.00 | 0.00 | 6550.2 | |
| 20260506082029 | 27 | 37 | 2.0 | 2.0 | 0.00 | 0.00 | 0.00 | 6550.2 | |
| 20260506081827 | 27 | 347 | 1.0 | 3.0 | 0.00 | 0.00 | 0.00 | 6550.2 | |
| 20260506081622 | 27 | 349 | 1.0 | 5.0 | 0.00 | 0.00 | 0.00 | 6550.2 | |
| 20260506081418 | 27 | 27 | 2.0 | 5.0 | 0.00 | 0.00 | 0.00 | 6550.2 | |
| 20260506081011 | 27 | 325 | 2.0 | 6.0 | 0.00 | 0.00 | 0.00 | 6550.2 | |
| 20260506080806 | 27 | 23 | 5.0 | 6.0 | 0.00 | 0.00 | 0.00 | 6550.2 | |
| 20260506080603 | 27 | 11 | 2.0 | 3.0 | 0.00 | 0.00 | 0.00 | 6550.2 | |
| 20260506080358 | 27 | 270 | 0.0 | 3.0 | 0.00 | 0.00 | 0.00 | 6550.2 | |
| 20260506080154 | 27 | 101 | 0.0 | 0.0 | 0.00 | 0.00 | 0.00 | 6550.2 | |
| 20260506080149 | 27 | 60 | 1.0 | 4.0 | 0.00 | 0.00 | 0.00 | 6550.2 | |
| 20260506073457 | 27 | 6 | 1.0 | 4.0 | 0.00 | 0.00 | 0.00 | 6550.2 | |
| 20260506073254 | 27 | 54 | 3.0 | 3.0 | 0.00 | 0.00 | 0.00 | 6550.2 | |
| 20260506073049 | 27 | 315 | 1.0 | 2.0 | 0.00 | 0.00 | 0.00 | 6550.2 | |
| 20260506072845 | 27 | 9 | 2.0 | 2.0 | 0.00 | 0.00 | 0.00 | 6550.2 | |
| 20260506072517 | 27 | 311 | 0.0 | 2.0 | 0.00 | 0.00 | 0.00 | 6550.2 | |
| 20260506072439 | 27 | 311 | 0.0 | 2.0 | 0.00 | 0.00 | 0.00 | 6550.2 | |
| 20260506072234 | 27 | 315 | 0.0 | 1.0 | 0.00 | 0.00 | 0.00 | 6550.2 | |
| 20260506072029 | 27 | 0 | 0.0 | 2.0 | 0.00 | 0.00 | 0.00 | 6550.2 | |
| 20260506071826 | 27 | 180 | 0.0 | 2.0 | 0.00 | 0.00 | 0.00 | 6550.2 | |
| 20260506071505 | 27 | 315 | 0.0 | 2.0 | 0.00 | 0.00 | 0.00 | 6550.2 | |
| 20260506071418 | 27 | 315 | 0.0 | 2.0 | 0.00 | 0.00 | 0.00 | 6550.2 | |
| 20260506071214 | 27 | 45 | 1.0 | 3.0 | 0.00 | 0.00 | 0.00 | 6550.2 | |
| 20260506071010 | 27 | 348 | 2.0 | 3.0 | 0.00 | 0.00 | 0.00 | 6550.2 | |
| 20260506070805 | 27 | 278 | 1.0 | 3.0 | 0.00 | 0.00 | 0.00 | 6550.2 | |
| 20260506070602 | 27 | 8 | 3.0 | 3.0 | 0.00 | 0.00 | 0.00 | 6550.2 | |
| 20260506070225 | 27 | 50 | 2.0 | 3.0 | 0.00 | 0.00 | 0.00 | 6550.2 | |
| 20260506070154 | 27 | 50 | 2.0 | 3.0 | 0.00 | 0.00 | 0.00 | 6550.2 | |
| 20260506062505 | 27 | 89 | 0.0 | 0.0 | 0.00 | 0.00 | 0.03 | 6550.2 | |
| 20260506062412 | 27 | 89 | 0.0 | 0.0 | 0.00 | 0.00 | 0.03 | 6550.2 | |
| 20260506062208 | 27 | 102 | 0.0 | 1.0 | 0.00 | 0.00 | 0.03 | 6550.2 | |
| 20260506062004 | 27 | 135 | 0.0 | 1.0 | 0.00 | 0.00 | 0.03 | 6550.2 | |
| 20260506061800 | 27 | 135 | 0.0 | 1.0 | 0.00 | 0.00 | 0.03 | 6550.2 | |
| 20260506061555 | 27 | 123 | 0.0 | 0.0 | 0.00 | 0.00 | 0.03 | 6550.2 | |
| 20260506061424 | 27 | 45 | 0.0 | 0.0 | 0.00 | 0.00 | 0.03 | 6550.2 | |
| 20260506061352 | 27 | 45 | 0.0 | 0.0 | 0.00 | 0.00 | 0.03 | 6550.2 | |
| 20260506061150 | 27 | 101 | 0.0 | 0.0 | 0.00 | 0.00 | 0.03 | 6550.2 | |
| 20260506060944 | 27 | 135 | 0.0 | 0.0 | 0.00 | 0.00 | 0.03 | 6550.2 |